Regional Weather Roundup
Issued by NWS

Home | Current Version | Previous Version | Graphics & Text | Print | Product List | Glossary On
Versions: 1 2 3 4 5 6 7 8 9 10 11 12 13 14 15 16 17 18 19 20 21 22 23 24 25 26 27 28 29 30 31 32 33 34 35 36 37 38 39 40 41 42 43 44 45 46 47 48 49 50
000
ASUS43 KLOT 250208
RWRIL

ILLINOIS REGIONAL WEATHER ROUNDUP
NATIONAL WEATHER SERVICE CHICAGO/ROMEOVILLE IL
900 PM CDT SUN MAY 24 2015

NOTE: "FAIR" INDICATES FEW OR NO CLOUDS BELOW 12,000 FEET WITH NO
SIGNIFICANT WEATHER AND/OR OBSTRUCTIONS TO VISIBILITY.

* THESE STATIONS ARE NOT UNDER NWS QUALITY CONTROL. THEY ALSO MAY NOT
  REPORT WEATHER SUCH AS PRECIPITATION OR FOG.

ILZ001-002-007-009-015-016-024-250300-
NORTHWEST ILLINOIS

CITY           SKY/WX    TMP DP  RH WIND       PRES   REMARKS
MOLINE         CLOUDY    71  65  81 S7        29.83F
STERLING*      CLOUDY    70  64  83 SE7       29.86F
SAVANNA*       LGT RAIN  69  67  92 CALM      29.86R
$$

ILZ003-004-008-010-011-017-018-250300-
NORTH CENTRAL ILLINOIS

CITY           SKY/WX    TMP DP  RH WIND       PRES   REMARKS
ROCKFORD       LGT RAIN  66  62  87 VRB3      29.92R FOG
FREEPORT*      CLOUDY    64  62  96 NE7       29.89F FOG
ROCHELLE*      LGT RAIN  68  66  93 S16       29.90R
DE KALB*       CLOUDY    67  64  87 SE10      29.90S
PERU*          CLOUDY    69  67  92 S3        29.89F
$$

ILZ005-006-012>014-019>023-250300-
NORTHEAST ILLINOIS

CITY           SKY/WX    TMP DP  RH WIND       PRES   REMARKS
CHICAGO-OHARE  MOCLDY    64  62  93 E9        29.92F
CHICAGO-MIDWAY MOCLDY    66  63  90 E5        29.93F
AURORA         CLOUDY    70  64  81 SE6       29.90F
LANSING*       PTCLDY    75  57  53 S12G21    29.95R
JOLIET*        MOCLDY    76  64  66 S7        29.91S
WAUKEGAN       MOCLDY    57  55  93 E7        29.92F
DUPAGE AIRPORT CLOUDY    67  64  90 SE6       29.91F
KANKAKEE*      CLOUDY    77  62  59 SE12      29.95S
WHEELING       MOCLDY    61  59  93 SE3       29.93F FOG
MORRIS*        CLOUDY    75  63  65 S12       29.90S
ROMEOVILLE*    CLOUDY    71  63  76 S9        29.92S
NORTHERLY ISL    N/A     58  56  93 N1          N/A
$$

LMZ740>746-250300-
SOUTHERN LAKE MICHIGAN

STATION/POSITION SKY/WX   TEMP    WIND        PRES    VSBY  WAVE
                          AIR SEA DIR/SP/G                  HT/PER
                          (F)     (DEG/KT/KT) (MB)    (MI)  (FT/S)
SOUTHERN BUOY              46 38   60/ 12/ 12 1014.4F         1
HARRISON CRIB              58      80/ 12/ 13   N/A
BURNHAM HARBOR             58      CALM  /  2   N/A
CALUMET HARBOR             61      40/  3/  4   N/A
BURNS HARBOR               79     180/ 10/ 17 1014.6S
MICHIGAN CITY              80     150/ 14/ 19   N/A
MICHIGAN CITY 6N           70 55  180/ 10/ 12   N/A           1
ST. JOSEPH                 68 56  190/ 10/ 12   N/A           1
$$

ILZ025>027-034>036-040-047-049-050-058-095>099-250300-
WEST-CENTRAL ILLINOIS

CITY           SKY/WX    TMP DP  RH WIND       PRES   REMARKS
QUINCY         CLOUDY    67  65  93 S8        29.86F
GALESBURG*     CLOUDY    69  65  87 SE6       29.86F
MACOMB*        LGT RAIN  69  67  94 S8        29.90R
JACKSONVILLE*  CLOUDY    78  65  64 S13G22    29.88S HX  80
PITTSFIELD*    HVY RAIN  69  66  90 S6        29.90F
$$

ILZ028>032-037-038-041>044-048-051>054-059>061-250300-
CENTRAL ILLINOIS

CITY           SKY/WX    TMP DP  RH WIND       PRES   REMARKS
PONTIAC        PTCLDY    79  63  58 S17       29.92F HX  81
BLOOMINGTON    PTCLDY    77  64  63 S18       29.93S
DECATUR        MOCLDY    79  62  56 S13       29.94R HX  80
PEORIA         MOCLDY    79  62  56 S14       29.88S HX  80
LACON*         MOCLDY    76  62  62 S10       29.87F
LINCOLN*       MOCLDY    79  62  55 S14G20    29.88R HX  81
SPRINGFIELD    PTCLDY    79  63  57 S16       29.90R HX  80
TAYLORVILLE    PTCLDY    77  63  61 S14G21    29.92S
$$

ILZ033-039-045-046-055>057-062-063-250300-
EAST-CENTRAL ILLINOIS

CITY           SKY/WX    TMP DP  RH WIND       PRES   REMARKS
CHAMPAIGN      CLOUDY    79  62  56 SE18      29.95S HX  80
DANVILLE*      PTCLDY    76  62  60 S13G21    29.96S
RANTOUL*       MOCLDY    80  63  55 S17G24    29.96S HX  81
MATTOON        MOCLDY    77  63  61 S12G21    29.96S
PARIS*         MOCLDY    76  62  61 SE15      30.00S
$$

ILZ079-100>102-250300-
SOUTHWEST ILLINOIS

CITY           SKY/WX    TMP DP  RH WIND       PRES   REMARKS
BELLEVILLE     LGT RAIN  77  66  69 SE13      29.90S
CAHOKIA*       RAIN      73  69  87 SE10      29.93R FOG
SPARTA*        CLOUDY    77  65  66 SE10G18   29.93S
$$

ILZ064>066-069>071-074>076-080>082-084>086-088>090-092>094-250300-
SOUTH-CENTRAL ILLINOIS

CITY           SKY/WX    TMP DP  RH WIND       PRES   REMARKS
CARBONDALE     MOCLDY    78  65  63 SE9       29.94S HX  80
CAIRO*         RAIN      67  66  94 SW14G29   30.01R
EFFINGHAM*     MOCLDY    77  60  55 SE10      29.98S
MARION         MOCLDY    79  68  69 SE9       29.97S HX  81
MT. VERNON     MOCLDY    79  63  57 S12G20    29.98S HX  80
CENTRALIA*     MOCLDY    77  64  62 SE17G25   29.95S
SALEM*         PTCLDY    80  64  57 SE13      29.96S HX  81
METROPOLIS*    LGT RAIN  78  69  73 SE9       29.98S HX  80
$$

ILZ067-068-072-073-078-083-087-091-250300-
SOUTHEAST ILLINOIS

CITY           SKY/WX    TMP DP  RH WIND       PRES   REMARKS
FLORA*         MOCLDY    76  64  66 S14       29.98S
FAIRFIELD*     PTCLDY    77  66  69 SE12      29.97S
HARRISBURG*    PTCLDY    77  66  70 SE9       29.99F
ROBINSON*      MOCLDY    77  62  59 SE9       30.01S
CARMI*         MOCLDY    73  63  68 SE12      30.00R
$$

ABBREVIATIONS USED IN REMARKS
   TC - TEMPERATURE IN CELSIUS
  WCI - WIND CHILL INDEX
   HX - HEAT INDEX
  VSB - VISIBILITY
$$




USA.gov is the U.S. government's official web portal to all federal, state and local government web resources and services.